Hauptseite
METAR-TAF:

METAR-TAF

Flughäfen :

Bohrplattform

P11-b, Niederlande

Breite: 52-21-36N, Länge: 3-20-30E, Höhe: 24 m

Beobachtung

Neuester Wetterbericht von vor 16 Minuten, um 13:25 UTC
Wind 17 kt aus Süd/Südwest
Temperatur 18°C
Luftfeuchtigkeit 83%
Luftdruck 1010 hPa
Sichtweite 10 km oder mehr
Leicht bewölkt in der Höhe von 2300 ft

METAR: EHPG 151325Z AUTO 21017KT 9999 FEW023 18/15 Q1010 W///H///

Zeit: 15:41 (13:41 UTC)


TAF: fehlend

Wetterbeobachtungen und Prognosen von mehr als 4000 Flughäfen (METAR und TAF Bericht).

Die verfügbaren Stationen werden durch gelbe und rote Markierungen auf der Karte dargestellt.

Führen Sie die Maus auf sie, um den Namen der Station zu sehen.

Darauf klicken, um die Beobachtung von Wetterbeobachtungen und Prognosen zu sehen.

Um die Karte zu ändern : klicken Sie auf den grünen Tasten mit einem schwarzen Kreuz Zum Vergrößern, auf den grünen Button mit einem Gedankenstrich zu verkleinern, oder auf die grünen Pfeile für benachbarte Karten.


METAR-TAF: